This is the latest recevied weather packets stored in our database for station/object K5RWS. If no packets are shown the sender has not sent any weather packets the latest 10 day(s).
| Time | Temp. | Humidity | Pressure | Rain* | Wind** | Luminosity | Snow |
|---|---|---|---|---|---|---|---|
| 1777299665 | 11.11° C | 42% | 1017.7 hPa | 0 mm | - | 232 W/m² | - |
| 1777299363 | 11.11° C | 42% | 1017.6 hPa | 0 mm | - | 217 W/m² | - |
| 1777299061 | 11.11° C | 42% | 1017.6 hPa | 0 mm | - | 202 W/m² | - |
| 1777298757 | 10.56° C | 44% | 1017.4 hPa | 0 mm | - | 187 W/m² | - |
| 1777298454 | 10.56° C | 45% | 1017.6 hPa | 0 mm | - | 171 W/m² | - |
| 1777298145 | 10.56° C | 46% | 1017.5 hPa | 0 mm | - | 157 W/m² | - |
| 1777297845 | 10° C | 47% | 1017.5 hPa | 0 mm | - | 143 W/m² | - |
| 1777297544 | 10° C | 47% | 1017.5 hPa | 0 mm | - | 131 W/m² | - |
| 1777297240 | 9.44° C | 48% | 1017.4 hPa | 0 mm | - | 117 W/m² | - |
| 1777296937 | 8.89° C | 49% | 1017.5 hPa | 0 mm | - | 105 W/m² | - |
| 1777296634 | 8.89° C | 48% | 1017.4 hPa | 0 mm | - | 93 W/m² | - |
| 1777296304 | 8.33° C | 49% | 1017.3 hPa | 0 mm | - | 81 W/m² | - |
| 1777295999 | 7.78° C | 50% | 1017.4 hPa | 0 mm | - | 70 W/m² | - |
| 1777295697 | 7.22° C | 51% | 1017.4 hPa | 0 mm | - | 60 W/m² | - |
| 1777295395 | 7.22° C | 52% | 1017.3 hPa | 0 mm | - | 54 W/m² | - |
| 1777295092 | 6.67° C | 53% | 1017.2 hPa | 0 mm | - | 45 W/m² | - |
| 1777294789 | 6.67° C | 53% | 1016.9 hPa | 0 mm | - | 38 W/m² | - |
| 1777294484 | 6.67° C | 53% | 1016.8 hPa | 0 mm | - | 32 W/m² | - |
| 1777294181 | 6.67° C | 54% | 1016.7 hPa | 0 mm | - | 26 W/m² | - |
| 1777293878 | 6.67° C | 54% | 1016.7 hPa | 0 mm | - | 21 W/m² | - |
| 1777293573 | 6.67° C | 54% | 1016.7 hPa | 0 mm | - | 16 W/m² | - |
| 1777293269 | 6.11° C | 55% | 1016.6 hPa | 0 mm | - | 12 W/m² | - |
| 1777292968 | 6.11° C | 54% | 1016.2 hPa | 0 mm | - | 8 W/m² | - |
| 1777292664 | 6.11° C | 54% | 1016.3 hPa | 0 mm | - | 5 W/m² | - |
| 1777292360 | 6.67° C | 53% | 1016.2 hPa | 0 mm | - | 3 W/m² | - |
* Rain latest hour (hover to see other rain measurements)
** Current wind speed in m/s (hover to see current wind gust speed)